"Time","Temp","Dewpoint","Humidity","Pressure","Direction","Speed","Gust","Precip","PrecipRate"
"00:04:56","29.5","26.1","87","30.45","66","0","0","0.00","0.00"
"00:09:59","29.5","26.1","87","30.45","66","0","0","0.00","0.00"
"00:14:56","29.5","26.1","87","30.45","66","0","0","0.00","0.00"
"00:19:57","29.4","26","87","30.44","66","0","0","0.00","0.00"
"00:24:57","29.3","25.9","87","30.44","66","0","0","0.00","0.00"
"00:29:57","29.3","25.9","87","30.45","66","0","0","0.00","0.00"
"00:34:57","29.2","25.9","87.1","30.45","66","0","0","0.00","0.00"
"00:39:58","29.4","26.3","88","30.45","66","0","0","0.00","0.00"
"00:44:58","29.5","26.4","88","30.45","66","0","0","0.00","0.00"
"00:49:58","29.6","26.5","88","30.45","66","0","0","0.00","0.00"
"00:54:58","29.7","26.6","88","30.45","66","0","0","0.00","0.00"
"00:59:58","29.7","26.6","88","30.45","66","0","0","0.00","0.00"
"01:04:59","29.7","26.6","88","30.45","66","0","0","0.00","0.00"
"01:09:56","29.7","26.6","88","30.45","66","0","0","0.00","0.00"
"01:14:59","29.7","26.6","88","30.46","66","0","0","0.00","0.00"
"01:19:59","29.7","26.6","88","30.46","66","0","0","0.00","0.00"
"01:24:58","29.7","26.6","88","30.46","66","0","0","0.00","0.00"
"01:29:59","29.9","26.8","88","30.46","66","0","0","0.00","0.00"
"01:34:59","29.9","26.8","88","30.45","66","0","0","0.00","0.00"
"01:39:56","30.1","27","88","30.45","66","0","0","0.00","0.00"
"01:44:56","30.2","27.1","88","30.45","66","0","0","0.00","0.00"
"01:49:56","30.4","27.4","88.4","30.45","66","0","0","0.00","0.00"
"01:54:59","30.6","27.6","88.6","30.45","66","0","0","0.00","0.00"
"01:59:59","30.8","27.7","88","30.45","66","0","0","0.00","0.00"
"02:04:56","31","27.9","88","30.44","66","0","0","0.00","0.00"
"02:09:56","31.2","28.1","88","30.44","66","0","0","0.00","0.00"
"02:14:57","31.2","28.1","88","30.44","66","0","0","0.00","0.00"
"02:19:56","31.4","28.3","88","30.44","66","0","0","0.00","0.00"
"02:24:59","31.5","28.4","88","30.44","66","0","0","0.00","0.00"
"02:29:59","31.6","28.5","88","30.44","66","0","0","0.00","0.00"
"02:34:59","31.9","28.8","88","30.44","66","0","0","0.00","0.00"
"02:39:56","32.1","28.9","88","30.44","66","0","0","0.00","0.00"
"02:44:59","32.3","29.1","88","30.44","66","0","0","0.00","0.00"
"02:49:59","32.4","29.2","88","30.44","66","0","0","0.00","0.00"
"02:54:57","32.6","29.4","88","30.44","66","0","0","0.00","0.00"
"02:59:56","32.8","29.6","88","30.44","66","0.9","2.4","0.00","0.00"
"03:04:56","33","29.8","88","30.43","66","0","0","0.00","0.00"
"03:09:56","33.1","29.9","87.7","30.43","66","0","0","0.00","0.00"
"03:14:57","33.4","30.1","87.8","30.43","66","0.2","1.2","0.00","0.00"
"03:19:56","33.6","30.4","88","30.43","66","0.2","1.2","0.00","0.00"
"03:24:56","33.8","30.6","88","30.43","66","0","1.2","0.00","0.00"
"03:29:59","34","30.8","88","30.43","66","0","1.2","0.00","0.00"
"03:34:59","34.2","31","88","30.42","66","0","0","0.00","0.00"
"03:39:56","34.3","31","87.5","30.42","66","0","0","0.00","0.00"
"03:44:56","34.5","31.3","87.9","30.42","66","0","1.2","0.00","0.00"
"03:49:56","34.8","31.4","87.4","30.41","66","0","0","0.00","0.00"
"03:54:56","34.9","31.4","87","30.41","66","0","0","0.00","0.00"
"03:59:58","35.1","31.6","87","30.41","66","0","0","0.00","0.00"
"04:04:59","35.2","31.5","86.3","30.41","66","0","0","0.00","0.00"
"04:09:59","35.4","31.5","85.6","30.41","66","0","0","0.00","0.00"
"04:14:59","35.6","31.6","85.5","30.41","66","0","0","0.00","0.00"
"04:19:57","35.8","32","86","30.40","66","0","0","0.00","0.00"
"04:24:57","35.9","32.1","86","30.40","66","0","0","0.00","0.00"
"04:29:59","36","32.2","86.2","30.40","66","0","0","0.00","0.00"
"04:34:58","36","32.2","86","30.39","66","0","0","0.00","0.00"
"04:38:15","36.1","32.6","86.9","30.39","66","0","0","0.00","0.00"
"04:44:58","36.2","32.7","87","30.40","66","0","0","0.00","0.00"
"04:49:58","36.3","32.7","86.6","30.40","66","0","0","0.00","0.00"
"04:54:57","36.4","32.9","86.8","30.40","66","0","0","0.00","0.00"
"04:59:56","36.6","33.1","87","30.40","66","0","0","0.00","0.00"
"05:04:56","36.7","33.1","86.7","30.40","66","0","0","0.00","0.00"
"05:09:56","36.8","33.2","86.8","30.40","66","0","0","0.00","0.00"
"05:14:56","36.9","33.4","87","30.40","66","0","0","0.00","0.00"
"05:19:56","37","33.4","86.6","30.39","66","0","0","0.00","0.00"
"05:24:56","37.3","33.1","84.4","30.39","66","1.2","3.6","0.00","0.00"
"05:29:59","38.1","32.9","81.5","30.39","67","1.3","3.6","0.00","0.00"
"05:34:58","38.7","33.1","80","30.39","67","0.2","2.3","0.00","0.00"
"05:39:59","39.1","33.3","79.5","30.39","50","0.9","3.6","0.00","0.00"
"05:44:58","39.4","33.2","78.5","30.39","47","0.1","1.2","0.00","0.00"
"05:49:58","39.5","33.4","78.5","30.38","47","0","1.2","0.00","0.00"
"05:54:57","39.6","33.3","77.8","30.38","47","0","0","0.00","0.00"
"05:59:57","39.7","33.2","77.5","30.38","48","0.4","2.4","0.00","0.00"
"06:04:57","39.9","32.8","75.7","30.38","48","0.2","2.4","0.00","0.00"
"06:09:59","40","32.9","75.7","30.38","48","0","1.2","0.00","0.00"
"06:14:59","40.2","32.8","74.7","30.38","48","0.8","2.4","0.00","0.00"
"06:19:59","40.3","32.7","74","30.37","48","0.7","2.4","0.00","0.00"
"06:24:58","40.4","32.7","73.7","30.37","47","1.2","2.4","0.00","0.00"
"06:29:57","40.6","32.7","73.1","30.37","66","1.5","3.6","0.00","0.00"
"06:34:56","40.8","32.8","73","30.37","66","1.1","4.8","0.00","0.00"
"06:39:57","40.9","32.7","72.3","30.37","47","1.8","4.6","0.00","0.00"
"06:44:56","41.1","32.9","72.5","30.37","48","1.9","3.6","0.00","0.00"
"06:49:56","41.2","32.8","71.8","30.36","71","3.3","6","0.00","0.00"
"06:54:59","41.3","32.9","71.9","30.36","73","2.5","4.8","0.00","0.00"
"06:59:58","41.5","33","71.8","30.36","89","2.8","6","0.00","0.00"
"07:04:58","41.5","33.1","72","30.36","85","2.7","8.4","0.00","0.00"
"07:09:58","41.6","33.4","72.5","30.36","94","4.5","9.6","0.00","0.00"
"07:14:58","41.6","34.2","74.7","30.36","101","2.5","5.8","0.00","0.00"
"07:19:58","41.5","34.7","76.6","30.35","97","1.4","4.6","0.00","0.00"
"07:24:58","41.3","35","78","30.35","93","2.3","4.8","0.00","0.00"
"07:29:57","41.1","35","78.7","30.35","91","2.6","4.8","0.00","0.00"
"07:34:56","40.9","34.9","79","30.34","86","3.5","7.2","0.00","0.00"
"07:39:57","40.9","35.2","79.9","30.34","84","1.9","4.8","0.01","0.01"
"07:44:56","40.9","35.5","80.7","30.35","87","1.6","3.6","0.01","0.01"
"07:49:56","40.9","35.5","80.8","30.35","115","1.8","6","0.01","0.01"
"07:54:59","40.9","35.7","81.6","30.35","118","1.3","3.6","0.01","0.01"
"07:59:57","40.9","35.8","82.1","30.35","112","1.9","4.8","0.01","0.01"
"08:04:58","40.8","36","83","30.35","111","1.1","3.6","0.01","0.01"
"08:09:57","40.8","36","83","30.35","111","1","2.4","0.02","0.02"
"08:14:58","40.8","36","83","30.35","111","0.4","2.4","0.02","0.02"
"08:19:57","40.9","36.2","83.3","30.35","111","0","0","0.02","0.02"
"08:24:57","40.9","36.2","83.4","30.35","117","1.1","4.8","0.02","0.02"
"08:29:56","40.9","36.3","83.6","30.36","117","0.4","1.2","0.02","0.02"
"08:34:56","41","36.8","85","30.36","117","0","0","0.02","0.02"
"08:39:58","41","37","85.6","30.36","117","0.1","1.2","0.02","0.02"
"08:44:58","41","37.3","86.9","30.36","117","0.3","2.4","0.03","0.02"
"08:49:58","40.9","37.3","87","30.35","117","0","0","0.03","0.02"
"08:54:58","40.8","37.4","87.5","30.35","117","0","1.2","0.04","0.02"
"08:59:57","40.8","37.5","88","30.35","116","0.6","3.6","0.04","0.03"
"09:04:58","40.7","37.4","88","30.33","110","2.4","6","0.04","0.03"
"09:09:58","40.7","37.4","88","30.33","109","1","4.6","0.04","0.03"
"09:14:58","40.7","37.4","88","30.33","109","0.5","2.4","0.04","0.02"
"09:19:58","40.7","37.4","88","30.33","109","1.3","3.6","0.04","0.02"
"09:24:58","40.6","37.3","88","30.33","103","2.1","6","0.04","0.02"
"09:29:58","40.6","37.2","87.5","30.33","108","1.9","5.8","0.04","0.02"
"09:34:58","40.7","37.3","87.8","30.33","107","1.2","3.6","0.04","0.02"
"09:39:59","40.6","37","87","30.33","70","1.9","3.6","0.04","0.02"
"09:44:59","40.6","37.2","87.8","30.33","63","2.1","4.8","0.05","0.02"
"09:49:58","40.6","37.3","88","30.33","66","2","4.6","0.06","0.03"
"09:54:58","40.5","37.4","88.6","30.33","66","1.2","3.6","0.07","0.03"
"09:59:58","40.4","37.4","89","30.33","70","2.3","4.8","0.08","0.04"
"10:04:58","40.4","37.4","89.1","30.33","46","0.8","2.4","0.08","0.04"
"10:09:59","40.4","37.7","90","30.33","26","0.9","3.6","0.09","0.05"
"10:14:57","40.4","37.7","90","30.33","26","0.3","2.4","0.09","0.05"
"10:19:57","40.4","38","90.8","30.32","50","0.5","3.6","0.10","0.06"
"10:24:57","40.4","38","91","30.32","95","0.7","3.5","0.10","0.06"
"10:29:57","40.4","38","91","30.32","95","0.5","2.4","0.11","0.07"
"10:34:57","40.4","38.1","91.2","30.31","81","0.5","3.6","0.12","0.08"
"10:39:58","40.4","38.2","91.5","30.31","76","0.2","2.4","0.12","0.08"
"10:44:58","40.5","38.4","92","30.31","72","0.3","2.4","0.12","0.08"
"10:49:58","40.5","38.4","92","30.30","55","0.9","3.6","0.13","0.08"
"10:54:57","40.5","38.4","92","30.30","51","0.3","2.4","0.14","0.08"
"10:59:57","40.5","38.4","92","30.30","51","0.1","1.2","0.15","0.07"
"11:04:58","40.6","38.5","92","30.30","52","0.9","3.6","0.16","0.08"
"11:09:58","40.6","38.5","92","30.30","51","0.6","3.6","0.17","0.08"
"11:14:58","40.7","38.6","92.2","30.30","58","0.6","2.4","0.18","0.09"
"11:19:58","40.8","38.9","93","30.29","59","0.3","2.4","0.20","0.10"
"11:24:58","40.9","39","93","30.29","40","1.7","4.8","0.21","0.10"
"11:29:58","40.9","39","93","30.29","17","0.6","4.8","0.22","0.11"
"11:34:58","40.8","38.9","93","30.28","16","0.5","3.6","0.23","0.11"
"11:39:59","40.8","38.9","93","30.28","16","0.6","3.6","0.24","0.12"
"11:44:59","40.7","38.8","93","30.28","15","0.8","3.6","0.25","0.12"
"11:49:59","40.7","38.8","93","30.27","15","0.8","2.4","0.26","0.13"
"11:54:59","40.6","38.7","93","30.27","14","1.3","3.6","0.26","0.13"
"11:59:59","40.6","38.7","93","30.27","11","1.7","4.8","0.27","0.13"
"12:04:56","40.6","38.8","93.2","30.26","11","0.9","3.6","0.28","0.12"
"12:09:56","40.6","39","94","30.26","11","0.3","2.4","0.28","0.12"
"12:14:57","40.7","39.1","94","30.26","355","0.4","3.6","0.29","0.11"
"12:19:57","40.7","39.1","94","30.24","355","0.3","2.4","0.30","0.11"
"12:24:57","40.8","39.2","94","30.24","355","0","1.2","0.32","0.11"
"12:29:58","41","39.4","94","30.24","355","0","1.2","0.33","0.11"
"12:34:57","41.2","39.6","94","30.23","355","0.2","2.4","0.34","0.12"
"12:39:59","41.4","39.8","94","30.23","355","0.1","2.3","0.35","0.11"
"12:44:58","41.7","40.1","94","30.23","355","0.4","2.4","0.36","0.12"
"12:49:59","41.9","40.5","94.9","30.21","349","0.4","3.6","0.36","0.11"
"12:54:59","42.1","40.8","95","30.21","349","0.2","1.2","0.38","0.11"
"12:59:59","42.2","40.9","95","30.21","349","0.1","1.2","0.39","0.12"
"13:04:59","42.2","40.9","95","30.21","349","0.1","1.2","0.40","0.12"
"13:09:59","42.3","41","95","30.21","350","0","0","0.42","0.14"
"13:14:57","42.4","41.1","95","30.21","349","0","0","0.44","0.14"
"13:19:57","42.4","41.1","95","30.20","349","0","0","0.45","0.15"
"13:24:56","42.5","41.2","95","30.20","349","0.8","3.6","0.46","0.15"
"13:29:56","42.4","41.1","95","30.20","349","1","3.6","0.48","0.15"
"13:34:57","42.3","41","95","30.19","350","1.5","3.6","0.48","0.15"
"13:39:58","42.2","40.9","95","30.19","350","0.1","2.3","0.49","0.15"
"13:44:57","42.2","40.9","95","30.19","350","0","1.2","0.50","0.14"
"13:49:57","42.1","40.8","95","30.17","350","0","1.2","0.51","0.15"
"13:54:57","42.1","40.8","95","30.17","350","0","1.2","0.52","0.16"
"13:59:57","42.2","40.9","95","30.17","350","0.1","1.2","0.53","0.14"
"14:04:57","42.2","40.9","95","30.15","350","0","0","0.53","0.14"
"14:09:57","42.3","41","95","30.15","350","0.2","2.4","0.54","0.13"
"14:14:57","42.4","41.1","95","30.15","350","0.5","2.4","0.55","0.12"
"14:19:57","42.5","41.2","95","30.15","350","0.4","2.4","0.56","0.12"
"14:24:57","42.6","41.3","95","30.15","350","0","0","0.58","0.12"
"14:29:57","42.7","41.4","95","30.15","350","0.3","2.4","0.59","0.12"
"14:34:57","42.8","41.5","95","30.14","350","0.3","2.4","0.60","0.12"
"14:39:59","43","41.7","95","30.14","350","0","0","0.61","0.12"
"14:44:59","43.1","41.8","95","30.14","350","0","1.2","0.62","0.12"
"14:49:55","43.3","42","95","30.13","350","0.1","1.2","0.63","0.12"
"14:54:59","43.5","42.3","95.2","30.13","350","0","0","0.64","0.12"
"14:59:56","43.7","42.6","95.6","30.13","350","0.1","1.2","0.66","0.14"
"15:04:56","44","42.7","95","30.12","350","0.1","1.2","0.67","0.14"
"15:09:56","44.1","42.9","95.3","30.12","360","0","1.2","0.69","0.15"
"15:14:57","44.3","43.2","96","30.12","360","0.5","2.4","0.70","0.15"
"15:19:56","44.6","43.5","96","30.10","23","0.8","3.6","0.72","0.16"
"15:24:56","45.1","44","96","30.10","47","1.2","3.6","0.74","0.16"
"15:29:56","45.7","44.6","96","30.10","64","1.7","4.8","0.75","0.16"
"15:34:56","46.2","45.1","96","30.09","79","1.3","3.6","0.77","0.17"
"15:39:57","46.6","45.5","96","30.09","80","2.3","6","0.79","0.19"
"15:44:56","47","45.9","96","30.09","87","2.9","6","0.80","0.19"
"15:49:56","47.4","46.3","96","30.08","84","2.3","4.8","0.82","0.19"
"15:54:56","47.7","46.6","96","30.08","82","2.8","7.2","0.82","0.19"
"15:59:56","48","46.9","96","30.08","99","2.5","6","0.84","0.19"
"16:04:56","48.4","47.3","96","30.07","112","2.6","4.8","0.84","0.18"
"16:09:56","48.8","47.7","96.2","30.07","125","1.7","4.8","0.85","0.17"
"16:14:57","49","47.9","96","30.07","125","1","3.6","0.86","0.17"
"16:19:56","49.2","48.1","96","30.06","119","1.8","4.8","0.88","0.16"
"16:24:56","49.5","48.6","96.8","30.06","117","3.2","7.2","0.90","0.17"
"16:29:57","49.7","48.7","96.4","30.06","111","3.2","6","0.92","0.17"
"16:34:57","49.9","48.8","96","30.05","103","3.3","5.8","0.94","0.17"
"16:39:59","50","49","96.4","30.05","113","3.6","8.4","0.95","0.17"
"16:44:58","50.2","49.4","97","30.05","120","3.8","8.4","0.97","0.17"
"16:49:59","50.4","49.3","96.1","30.04","109","3.8","8.4","0.98","0.17"
"16:54:59","50.6","49.7","96.7","30.04","112","5","12","1.00","0.17"
"16:59:59","50.9","50.1","97","30.04","107","4.6","12","1.00","0.17"
"17:04:56","51.2","50.4","97","30.02","122","4.4","11.5","1.01","0.17"
"17:09:59","51.5","50.7","97","30.02","114","4.6","12","1.03","0.18"
"17:14:56","51.7","50.9","97","30.02","112","3","12","1.05","0.18"
"17:19:57","52","51.2","97","30.01","115","4.2","11.5","1.07","0.20"
"17:24:57","52.2","51.4","97","30.01","117","3.6","7.2","1.09","0.19"
"17:29:56","52.5","51.7","97","30.01","111","5","12","1.10","0.19"
"17:34:56","52.8","52","97","30.01","108","5.7","11.5","1.11","0.18"
"17:39:58","53","52.2","97","30.01","116","5.3","10.8","1.12","0.18"
"17:44:57","53.2","52.4","97","30.01","121","6.1","12","1.13","0.17"
"17:49:57","53.5","52.7","97","29.99","116","5.6","13.2","1.14","0.16"
"17:54:56","53.7","52.8","96.7","29.99","121","5.1","16.1","1.14","0.16"
"17:59:56","53.8","52.8","96.5","29.99","123","3.3","8.1","1.15","0.15"
"18:04:56","53.9","52.8","96","29.97","122","6.6","13.2","1.15","0.15"
"18:09:56","54","52.9","96","29.97","124","6.9","15","1.15","0.14"
"18:14:57","54.2","53.1","96","29.97","117","8.9","21.9","1.16","0.13"
"18:19:57","54.4","53","95.1","29.96","132","5.7","18","1.16","0.11"
"18:24:56","54.5","53.1","95","29.96","121","5.3","18.4","1.17","0.09"
"18:29:55","54.5","53.1","95","29.96","114","7.1","16.1","1.17","0.08"
"18:34:59","54.6","53.2","95","29.95","115","7.7","18","1.18","0.07"
"18:39:56","54.7","53","94","29.95","124","7.9","18.4","1.19","0.07"
"18:44:56","54.7","53","94","29.95","134","5.1","17.3","1.20","0.08"
"18:49:56","54.8","53.1","94","29.95","129","7.9","17.3","1.23","0.09"
"18:54:59","54.8","53.1","94","29.95","123","6.7","14.4","1.24","0.10"
"18:59:59","54.8","53.1","94","29.95","124","6.4","16.1","1.26","0.10"
"19:04:59","54.8","53.1","94","29.93","148","4.2","17.3","1.28","0.13"
"19:09:59","54.8","53.2","94.2","29.93","143","5","10.8","1.29","0.14"
"19:14:56","54.9","53.2","94.2","29.93","140","5.3","13.2","1.31","0.14"
"19:19:56","54.9","53.2","94.1","29.93","142","2.9","12","1.32","0.15"
"19:24:59","54.9","53.5","94.7","29.93","121","5.4","11.5","1.33","0.16"
"19:29:59","55","53.3","94","29.93","146","4.5","15.6","1.35","0.17"
"19:34:59","55","53.3","94","29.92","146","3.8","16.1","1.36","0.18"
"19:39:56","55","53.3","94","29.92","164","5.1","13.2","1.39","0.20"
"19:44:56","55.1","53.6","94.8","29.92","147","6","15","1.40","0.20"
"19:49:56","55.1","53.7","95","29.91","122","3.3","14.4","1.41","0.20"
"19:54:59","55.1","53.7","95","29.91","156","6.2","15","1.41","0.18"
"19:59:59","55.2","53.8","95","29.91","157","5.6","15","1.42","0.17"
"20:04:59","55.2","53.6","94.2","29.89","155","7.7","16.1","1.42","0.16"
"20:09:59","55.3","53.6","94","29.89","135","7.3","15.6","1.43","0.14"
"20:14:56","55.3","53.6","94","29.89","150","5.5","16.8","1.43","0.14"
"20:19:56","55.4","53.7","94","29.88","141","7.1","17.3","1.44","0.13"
"20:24:59","55.5","53.8","94","29.88","145","5.3","13.2","1.45","0.13"
"20:29:59","55.5","53.8","94","29.88","151","6","16.1","1.46","0.12"
"20:34:59","55.5","53.8","94","29.88","162","4.8","10.8","1.47","0.12"
"20:39:56","55.5","53.9","94.2","29.88","195","4.2","10.8","1.49","0.11"
"20:44:56","55.4","54","94.9","29.92","248","4.3","7.2","1.51","0.10"
"20:49:56","55.3","53.9","95","29.92","280","4","12","1.56","0.13"
"20:54:59","54.8","53.1","93.9","29.92","301","8","21.9","1.65","0.22"
"20:59:59","52.6","50.1","91","29.94","307","7.6","20.7","1.71","0.29"
"21:04:59","50.7","48.2","91","29.94","319","7.1","18.4","1.75","0.33"
"21:09:59","49.6","47.4","92.2","29.94","300","4.5","12","1.77","0.34"
"21:14:56","48.9","47","93","29.94","312","4.8","13.2","1.80","0.36"
"21:19:56","48.5","46.8","93.9","29.94","313","3.4","7.2","1.83","0.38"
"21:24:57","48.1","46.5","94","29.94","324","4.5","15","1.85","0.40"
"21:29:58","47.9","46.4","94.2","29.94","325","4.6","12","1.87","0.41"
"21:34:58","47.8","46.4","94.6","29.93","325","4","12","1.87","0.41"
"21:39:59","47.8","46.4","95","29.93","331","3.7","7.2","1.89","0.41"
"21:44:59","47.8","46.4","95","29.93","320","4.2","8.4","1.89","0.40"
"21:45:58","47.8","46.4","95","29.93","302","2.4","8.1","1.89","0.38"
